Location: Bucaral
(10.5128°N, 67.0901°W)
Time: 07:04:15
(UTC+00:00)

GOES 2 Rocket - Pass Details

Date: 18 April 2024
Orbit: 569 x 1666 km, 28.4° (Epoch: 24 May)

Event Time Altitude Azimuth Distance (km) Brightness Sun altitude
Rises 23:30:18 0° 240° (WSW) 2,757 7.1 -13.0°
Reaches altitude 10° 23:32:27 10° 239° (WSW) 1,893 6.2 -13.5°
Maximum altitude 23:36:44 84° 151° (SSE) 643 3.0 -14.5°
Enters shadow 23:40:47 16° 64° (ENE) 1,832 5.0 -15.5°
